ELECTRON KICK STAGE R/B, 63306

Orbit data source: Space-Track

ELECTRON KICK STAGE R/B, 63306 is space debris in SSO originally from a launch on Tue, 18 Mar 2025 UTC launched from the Rocket Lab Launch Complex (RLLC). Debris objects in space refer to the collection of defunct objects orbiting the Earth. Examples of debris include non-operational satellites, rocket bodies, and fragments generated from explosions, collisions, or faulty payload assembly.

Loading next visibility...
Identifier
63306, 2025-056G
Orbit
SSO
Country
Flag of USUS
Related business
Manufacturer
Rocket Lab
Mission
Spacecraft
Bus & Motor
KICK STAGE, CURIE
Mass
~50 kg wet, ~50 kg dry
Launch date (UTC)
2025-03-18 (1 year ago)
Launch vehicle
Unknown
Launch site
Rocket Lab Launch Complex (RLLC)
Object type
Payload
Rocket body
Debris
Shape & HBR
Trunc Cone, 0.9 m
Radar Cross Section
0.760 m², Large (>1 m²)

Expand to show TLE details & history
Last TLE update: 12 hours ago

TLE from 12 hours ago
0 ELECTRON KICK STAGE R/B
1 63306U 25056G   26123.94295608  .00003267  00000-0  35104-3 0  9997
2 63306  98.0201 258.7936 0043354 128.6678 231.8430 14.88584404 61191
Epoch: 2026-05-03T22:37Z
TLE epoch observation values (Epoch: 2026-05-03T22:37:51.405Z)
Latitude
0.00001°
Longitude
57.49015°
Altitude
624.169 km
Speed
7.536 km/s
True Right ascension
17h 15m 10s
True Declination
0° 00' 00"
Sunlit
Object was in full shadow at epoch
Visualization orbit readout
Latitude
Unknown
Longitude
Unknown
Altitude
Unknown
Speed
Unknown
Apparent Right ascension
Unknown
Apparent Declination
Unknown
Sunlit
N/A
Visualization observer readout
Local Sidereal Time
18:53:20
Azimuth
Unknown
Elevation
Unknown
Doppler factor
Unknown
Orbital elements
Apogee altitude
629.643 km
Perigee altitude
569.142 km
Semi-major axis
6,977.529 km
Eccentricity
0.00434
Inclination
98.0201°
RAAN
258.7936°
Arg. of periapsis
128.6678°
True anomaly
231.45366°
Mean anomaly
231.843°
Eccentric anomaly
231.6482°
Mean motion
3.72384 °/min
Orbital period
96.67 mins
BSTAR
0.00035104
Loading maneuver chart data...
Computing Atmospheric mass density...
Loading historical data...
Loading historical data...
Loading historical data...
Loading historical data...
Loading historical data...
Loading historical data...
Loading historical data...

Documentation

Showing up to 5 results
|